Regional Weather Roundup
Issued by NWS Portland, ME

Current Version | Previous Version | Text Only | Print | Product List | Glossary Off
Versions: 1 2 3 4 5 6 7 8 9 10 11 12 13 14 15 16 17 18 19 20 21 22 23 24 25 26 27 28 29 30 31 32 33 34 35 36 37 38 39 40 41 42 43 44 45 46 47 48 49 50
000 ASUS41 KGYX 211110 RWRGYX WEATHER ROUNDUP FOR MAINE AND NEW HAMPSHIRE NATIONAL WEATHER SERVICE GRAY ME 600 AM EST SUN JAN 21 2018 MEZ002-005-006-010-012-015-018-020-021-024-026-027-029-211200- MAINE CITY SKY/WX TMP DP RH WIND PRES REMARKS PORTLAND MOCLDY 35 28 75 SW3 30.01R SANFORD FAIR 37 28 70 W8 30.02R BAR HARBOR CLOUDY 34 23 64 N3 29.99R WISCASSET FAIR 39 28 64 W6 30.00R ROCKLAND FAIR 38 29 70 W8 29.97R FRYEBURG FAIR 39 29 67 W10G18 29.99R LEWISTONAUBURN FAIR 39 28 64 NW10 29.99R AUGUSTA FAIR 39 25 57 NW6 29.98R WATERVILLE CLOUDY 38 26 62 VRB5 29.94R BANGOR FAIR 31 23 72 NW6 29.99R GREENVILLE N/A 21 13 71 NW22G31 29.90R WCI 5 MILLINOCKET FAIR 23 12 62 VRB7 29.98R HOULTON FAIR 20 10 65 W7 29.93R PRESQUE ISLE FAIR 12 7 80 N5 29.96R FRENCHVILLE FAIR 9 2 73 W13 29.90R WCI -7 CARIBOU FAIR 12 4 70 W3 29.93R $$ NHZ002-005-008-009-011-012-014-211200- NEW HAMPSHIRE CITY SKY/WX TMP DP RH WIND PRES REMARKS PORTSMOUTH CLOUDY 32 26 78 SW7 30.03R ROCHESTER FAIR 34 28 79 CALM 30.02R NASHUA FAIR 27 26 96 CALM 30.06R MANCHESTER MOCLDY 30 25 81 S3 30.04R CONCORD MOCLDY 25 22 88 CALM 30.03R LACONIA CLOUDY 34 28 79 W5 30.03R PLYMOUTH CLOUDY 38 31 74 W6 30.02R BERLIN CLOUDY 35 24 64 NW9G18 29.98R WHITEFIELD CLOUDY 35 27 72 CALM 30.01R JAFFREY FAIR 31 27 85 W3 30.03R KEENE FAIR 19 17 92 CALM 30.06R LEBANON CLOUDY 30 27 88 CALM 30.03R MT WASHINGTON FOG 14 14 100 NW70G81 N/A VSB 0 WCI -14 $$ VTZ005-007-008-211200- VERMONT CITY SKY/WX TMP DP RH WIND PRES REMARKS ST JOHNSBURY N/A 35 27 72 MISG 30.03R MONTPELIER CLOUDY 34 30 85 W3 30.06R BURLINGTON CLOUDY 37 28 70 CALM 30.07R $$ MAZ007-012-024-CTZ003-RIZ002-NYZ038-NYZ072-211200- SOUTHERN NEW ENGLAND AND NY CITY SKY/WX TMP DP RH WIND PRES REMARKS BOSTON CLOUDY 36 29 75 CALM 30.07R WORCESTER FAIR 35 25 66 NW13 30.03R NANTUCKET FAIR 38 31 76 NW9 30.07R PROVIDENCE FAIR 38 29 70 W3 30.07R HARTFORD FAIR 25 22 88 CALM 30.09R ALBANY CLOUDY 37 28 70 NW6 30.11R NEW YORK CITY FAIR 44 27 51 W5 30.11R $$ ANZ081-ANZ082-ANZ150-NHZ014-MEZ023>029-211200- COASTAL MARINE OBSERVATIONS STATION/POSITION TIME TEMP WIND PRES WAVE AIR SEA DIR/SP/G HT/PER (UTC) (F) (DEG/KT/KT) (MB) (FT/S) MOUNT DESERT ROC 1100 40 250/ 15/ 16 1014.9R MATINICUS ROCK 1000 40 260/ 17/ 19 1014.1R ISLE OF SHOALS 1000 38 250/ 13/ 13 1016.1R JEFFREYS LEDGE 1036 43 N/A 2/ 3 GEORGES BANK BUO 0950 49 59 1012.3 11/11 $$ .............KEY.............. WCI - WIND CHILL TC - TEMPERATURE IN CELSIUS VSB - VISIBILITY IN MILES HX - HEAT INDEX FAIR- INDICATES FEW OR NO CLOUDS BELOW 12,000 FT, WITH NO SIGNIFICANT WEATHER AND/OR OBSTRUCTIONS TO VISIBILITY.

USA.gov is the U.S. government's official web portal to all federal, state and local government web resources and services.